Location: Tel Aviv
(32.0670°N, 34.7670°E)
Time: 19:20:10
(UTC+03:00)

Vanguard 2 Rocket - Pass Details

Date: 27 January 2022
Orbit: 553 x 3323 km, 32.9° (Epoch: 24 May)

Event Time Altitude Azimuth Distance (km) Brightness Sun altitude
Exits shadow 05:39:24 14° 283° (WNW) 5,644 10.2 -12.6°
Maximum altitude 05:57:43 75° 203° (SSW) 3,362 9.7 -8.9°
Drops below altitude 10° 06:15:30 10° 121° (ESE) 5,390 12.5 -5.3°
Sets 06:19:02 0° 120° (ESE) 6,117 13.3 -4.5°
